Austin Bergstrom, TX

5:23 AM CST on December 17, 2017 (GMT -0600)
Austin Bergstrom International

Weather History for KAUS - October, 2013

Change the Weather History Date:

Tuesday, October 15, 2013

  Actual Average Record
Temperature  
Mean Temperature 72 °F 70 °F  
Max Temperature 85 °F 83 °F 93 °F (1962)
Min Temperature 59 °F 56 °F 38 °F (2010)
Degree Days  
Heating Degree Days 0 1  
Month to date heating degree days 0 14  
Since 1 July heating degree days 0 16  
Cooling Degree Days 7 6  
Month to date cooling degree days 143 110  
Year to date cooling degree days 2956 2638  
Growing Degree Days 23 (Base 50)    
Moisture  
Dew Point 69 °F    
Average Humidity 81    
Maximum Humidity 100    
Minimum Humidity 61    
Precipitation  
Precipitation T in 0.15 in 3.36 in (1957)
Month to date precipitation 5.12 1.86  
Year to date precipitation 29.34 27.11  
Snow  
Snow 0.00 in - - ()
Month to date snowfall 0.0  
Since 1 July snowfall 0.0  
Since 1 September snowfall 0.0  
Snow Depth 0.00 in    
Sea Level Pressure  
Sea Level Pressure 29.94 in    
Wind  
Wind Speed 8 mph (SSW)    
Max Wind Speed 21 mph    
Max Gust Speed 26 mph    
Visibility 8 miles    
Events Rain    
T = Trace of Precipitation, MM = Missing Value Source: NWS Daily Summary

Daily Weather History Graph

Daily Weather History Graph

Search for Another Location

Airport or City:

Trip Planner

Search our weather history database for the weather conditions in past years. The results will help you decide how hot, cold, wet, or windy it might be!

Date:

Astronomy

Oct. 15, 2013 Rise Set
Actual Time 7:32 AM CDT 6:59 PM CDT
Civil Twilight 7:08 AM CDT 7:23 PM CDT
Nautical Twilight 6:40 AM CDT 7:51 PM CDT
Astronomical Twilight 6:13 AM CDT 8:19 PM CDT
Moon 4:54 PM CDT (10/15) 4:10 AM CDT (10/15)
Length of Visible Light 12h 14m
Length of Day
11h 26m
Waxing Gibbous, 88% of the Moon is Illuminated
Oct 15
Waxing Gibbous
Oct 18
Full
Oct 26
Last Quarter
Nov 3
New
Nov 9
First Quarter

Hourly Weather History & Observations

Time (CDT) Temp. Heat Index Dew Point Humidity Pressure Visibility Wind Dir Wind Speed Gust Speed Precip Events Conditions
12:53 AM 72.0 °F - 70.0 °F 93% 29.97 in 10.0 mi South 3.5 mph - N/A   Mostly Cloudy
1:11 AM 71.6 °F - 69.8 °F 94% 29.99 in 10.0 mi Calm Calm - N/A   Overcast
1:36 AM 71.6 °F - 69.8 °F 94% 29.99 in 9.0 mi Calm Calm - N/A   Mostly Cloudy
1:53 AM 73.0 °F - 70.0 °F 90% 29.96 in 10.0 mi Calm Calm - N/A   Overcast
2:53 AM 72.0 °F - 70.0 °F 93% 29.96 in 8.0 mi Calm Calm - N/A   Mostly Cloudy
3:53 AM 70.0 °F - 68.0 °F 93% 29.94 in 6.0 mi Calm Calm - N/A   Scattered Clouds
4:53 AM 69.1 °F - 68.0 °F 96% 29.93 in 4.0 mi South 3.5 mph - N/A   Mostly Cloudy
5:53 AM 70.0 °F - 69.1 °F 97% 29.94 in 4.0 mi Calm Calm - N/A   Scattered Clouds
6:53 AM 70.0 °F - 69.1 °F 97% 29.94 in 3.0 mi South 4.6 mph - N/A   Scattered Clouds
7:18 AM 69.8 °F - 69.8 °F 100% 29.96 in 2.0 mi Calm Calm - N/A   Mostly Cloudy
7:32 AM 69.8 °F - 69.8 °F 100% 29.96 in 1.0 mi SSE 4.6 mph - N/A   Mostly Cloudy
7:53 AM 70.0 °F - 69.1 °F 97% 29.94 in 1.0 mi SSW 3.5 mph - N/A   Scattered Clouds
7:57 AM 69.8 °F - 69.8 °F 100% 29.97 in 0.5 mi SSW 3.5 mph - N/A   Scattered Clouds
8:53 AM 72.0 °F - 71.1 °F 97% 29.96 in 1.0 mi South 9.2 mph - N/A   Mostly Cloudy
9:11 AM 73.4 °F - 71.6 °F 94% 29.98 in 2.0 mi SSW 10.4 mph - N/A   Mostly Cloudy
9:31 AM 73.4 °F - 71.6 °F 94% 29.98 in 4.0 mi South 9.2 mph - N/A   Partly Cloudy
9:53 AM 75.9 °F - 72.0 °F 87% 29.96 in 7.0 mi SSW 11.5 mph - N/A   Scattered Clouds
10:14 AM 78.8 °F - 71.6 °F 78% 29.98 in 10.0 mi SSW 9.2 mph - N/A   Mostly Cloudy
10:53 AM 78.1 °F - 71.1 °F 79% 29.96 in 10.0 mi SSW 10.4 mph - N/A   Overcast
11:37 AM 80.6 °F 84.6 °F 71.6 °F 74% 29.97 in 10.0 mi SW 9.2 mph - N/A   Mostly Cloudy
11:53 AM 80.1 °F 83.6 °F 71.1 °F 74% 29.95 in 10.0 mi SW 6.9 mph - N/A   Mostly Cloudy
12:53 PM 80.1 °F 83.2 °F 70.0 °F 71% 29.93 in 10.0 mi SSW 10.4 mph - N/A   Overcast
1:53 PM 84.0 °F 88.4 °F 70.0 °F 63% 29.90 in 10.0 mi SSW 6.9 mph - N/A   Mostly Cloudy
2:53 PM 84.9 °F 89.4 °F 70.0 °F 61% 29.87 in 10.0 mi SSW 10.4 mph - N/A   Mostly Cloudy
3:53 PM 84.9 °F 88.8 °F 69.1 °F 59% 29.86 in 10.0 mi SSW 10.4 mph - N/A   Mostly Cloudy
4:53 PM 84.0 °F 87.8 °F 69.1 °F 61% 29.86 in 10.0 mi South 6.9 mph - N/A   Mostly Cloudy
5:53 PM 82.9 °F 86.5 °F 69.1 °F 63% 29.86 in 10.0 mi South 5.8 mph - N/A   Scattered Clouds
6:53 PM 79.0 °F - 69.1 °F 72% 29.86 in 10.0 mi ESE 4.6 mph - N/A   Mostly Cloudy
7:53 PM 75.0 °F - 69.1 °F 82% 29.89 in 10.0 mi NNE 13.8 mph - N/A   Overcast
8:33 PM 73.4 °F - 66.2 °F 78% 29.94 in 10.0 mi North 16.1 mph - N/A   Overcast
8:53 PM 70.0 °F - 66.0 °F 87% 29.94 in 10.0 mi North 18.4 mph - N/A   Overcast
9:53 PM 64.9 °F - 61.0 °F 87% 29.99 in 10.0 mi NNW 13.8 mph - 0.00 in Rain Light Rain
10:53 PM 62.1 °F - 57.9 °F 86% 30.00 in 10.0 mi North 13.8 mph - 0.00 in   Overcast
11:53 PM 61.0 °F - 55.9 °F 83% 29.99 in 10.0 mi North 12.7 mph - 0.00 in Rain Light Rain